EHI
7 3 0 0 0 0 0 0 0 0 0 0 0 0 0 0 0 0 0 0 0 0 0 0 0 0 0 0 0 0 0 0 0 0 0 0 0 0 0 0 0 0 0
15 6 0 0 0 0 0 0 0 0 0 0 0 0 0 0 0 0 0 0 0 0 0 0 0 0 0 0 0 0 0 0 0 0 0 0 0 0 0 0 0 0 0
24 12 2 0 0 0 0 0 0 0 0 0 0 0 0 0 0 0 0 0 0 0 0 0 0 0 0 0 0 0 0 0 0 0 0 0 0 0 0 0 0 0 0
25 15 5 1 0 0 0 0 0 0 0 0 0 0 0 0 0 0 0 0 0 0 0 0 0 0 0 0 0 0 0 0 0 0 0 0 0 0 0 0 0 0 0
22 20 18 16 11 7 4 1 0 0 0 0 0 0 0 0 0 0 0 0 0 0 0 0 0 0 0 0 0 0 0 0 0 0 0 0 0 0 0 0 0 0 0
29 36 47 49 42 33 22 10 4 2 0 0 0 0 0 0 0 0 0 0 0 0 0 0 0 0 0 0 0 0 0 0 0 0 0 0 0 0 0 0 0 0 0
48 60 75 80 76 66 49 31 19 11 7 4 2 0 0 0 0 0 0 0 0 0 0 0 0 0 0 0 0 0 0 0 0 0 0 0 0 0 0 0 0 0 0
50 59 74 83 85 80 66 49 39 32 23 14 6 2 1 0 0 0 0 0 0 0 0 0 0 0 0 0 0 0 0 0 0 0 0 0 0 0 0 0 0 0 0
24 30 41 53 62 64 57 49 46 42 33 20 10 5 3 2 0 0 0 0 0 0 0 0 0 0 0 0 0 0 0 0 0 0 0 0 0 0 0 0 0 0 0
4 6 11 18 26 32 31 31 31 27 21 15 9 6 5 3 1 0 0 0 0 0 0 0 0 0 0 0 0 0 0 0 0 0 0 0 0 0 0 0 0 0 0
0 0 1 2 4 7 10 11 10 7 5 5 3 3 3 2 1 0 0 0 0 0 0 0 0 0 0 0 0 0 0 0 0 0 0 0 0 0 0 0 0 0 0
0 0 0 0 0 0 1 1 1 0 0 0 0 0 1 1 0 0 0 0 0 0 0 0 0 0 0 0 0 0 0 0 0 0 0 0 0 0 0 0 0 0 0
0 0 0 0 0 0 0 0 0 0 0 0 0 0 0 0 0 0 0 0 0 0 0 0 0 0 0 0 0 0 0 0 0 0 0 0 0 0 0 0 0 0 0
0 0 0 0 0 0 0 0 0 0 0 0 0 0 0 0 0 0 0 0 0 0 0 0 0 0 0 0 0 0 0 0 0 0 0 0 0 0 0 0 0 0 0
0 0 0 0 0 0 0 0 0 0 0 0 0 0 0 0 0 0 0 0 0 0 0 0 0 0 0 0 0 0 0 0 0 0 0 0 0 0 0 0 0 0 0
0 0 0 0 0 0 0 0 0 0 0 0 0 0 0 0 0 0 0 0 0 0 0 0 0 0 0 0 0 0 0 0 0 0 0 0 0 0 0 0 0 0 0
0 0 0 0 0 0 0 0 0 0 0 0 0 0 0 0 0 0 0 0 0 0 0 0 0 0 0 0 0 0 0 0 0 0 0 0 0 0 0 0 0 0 0
0 0 0 0 0 0 0 0 0 0 0 0 0 0 0 0 0 0 0 0 0 0 0 0 0 0 0 0 0 0 0 0 0 0 0 0 0 0 0 0 0 0 0
0 0 0 0 0 0 0 0 0 0 0 0 0 0 0 0 0 0 0 0 0 0 0 0 0 0 0 0 0 0 0 0 0 0 0 0 0 0 0 0 0 0 0
0 0 0 0 0 0 0 0 0 0 0 0 0 0 0 0 0 0 0 0 0 0 0 0 0 0 0 0 0 0 0 0 0 0 0 0 0 0 0 0 0 0 0
0 0 0 0 0 0 0 0 0 0 0 0 0 0 0 0 0 0 0 0 0 0 0 0 0 0 0 0 0 0 0 0 0 0 0 0 0 0 0 0 0 0 0
0 0 0 0 0 0 0 0 0 0 0 0 0 0 0 0 0 0 0 0 0 0 0 0 0 0 0 0 0 0 0 0 0 0 0 0 0 0 0 0 0 0 0
0 0 0 0 0 0 0 0 0 0 0 0 0 0 0 0 0 0 0 0 0 0 0 0 0 0 0 0 0 0 0 0 0 0 0 0 0 0 0 0 0 0 0
0 0 0 0 0 0 0 0 0 0 0 0 0 0 0 0 0 0 0 0 0 0 0 0 0 0 0 0 0 0 0 0 0 0 0 0 0 0 0 0 0 0 0
0 0 0 0 0 0 0 0 0 0 0 0 0 0 0 0 0 0 0 0 0 0 0 0 0 0 0 0 0 0 0 0 0 0 0 0 0 0 0 0 0 0 0
0 0 0 0 0 0 0 0 0 0 0 0 0 0 0 0 0 0 0 0 0 0 0 0 0 0 0 0 0 0 0 0 0 0 0 0 0 0 0 0 0 0 0
Wind_Speed
8 7 6 5 5 5 5 5 6 6 6 7 7 8 8 8 8 7 7 9 7 5 4 6 8 9 7 7 7 8 8 7 7 5 5 6 10 9 8 6 5 6 7
9 8 7 5 5 5 5 6 7 7 7 8 8 8 7 8 8 8 8 7 5 2 3 5 8 7 9 7 7 9 8 9 8 8 6 6 10 10 9 8 6 5 4
10 9 8 7 7 6 6 6 7 8 8 8 9 9 9 9 9 9 8 8 6 5 5 7 8 8 9 8 9 9 8 8 8 7 6 5 6 8 9 8 8 6 5
10 9 9 8 7 7 7 6 7 8 8 8 8 9 9 10 10 10 9 10 11 11 10 9 9 11 11 10 9 10 9 9 8 7 7 7 6 7 8 8 8 7 7
9 9 8 8 7 8 7 8 8 8 8 8 7 7 7 7 8 10 11 12 13 13 12 11 11 11 10 9 7 8 8 8 7 8 8 7 7 7 9 8 7 7 8
7 8 7 7 8 8 9 9 9 9 10 9 8 8 8 6 6 6 7 9 10 11 12 11 10 10 12 12 13 11 8 9 10 9 9 10 12 11 9 8 8 8 7
6 7 7 8 8 9 10 10 10 10 10 10 10 10 10 8 8 8 9 9 9 10 10 10 8 8 10 11 13 15 14 14 13 11 11 13 12 12 12 12 11 10 7
4 5 6 7 8 9 9 10 10 10 10 10 10 10 10 8 9 9 8 12 10 10 10 11 10 10 11 11 10 11 12 13 13 13 12 10 8 8 12 12 11 10 6
2 1 2 3 5 7 9 10 9 9 9 10 9 10 10 8 9 8 9 9 9 10 9 9 9 10 7 7 9 10 9 8 5 6 6 4 2 5 8 8 8 8 8
6 6 5 5 3 2 5 6 6 7 8 8 8 9 10 9 9 9 10 7 8 7 6 6 4 4 4 6 8 6 6 5 3 4 5 5 6 8 11 11 8 9 7
6 7 7 7 6 5 2 1 3 4 6 6 7 7 8 7 8 8 8 6 5 5 5 4 4 6 4 4 5 3 1 1 3 4 4 4 4 5 8 9 7 6 7
6 7 7 7 7 5 4 4 4 4 5 5 5 5 5 5 5 7 8 7 5 5 4 4 5 7 5 5 3 3 4 2 2 3 3 3 3 4 5 6 5 5 6
6 6 6 6 6 5 4 5 5 4 3 3 3 3 4 4 5 5 7 7 5 4 2 6 7 8 7 6 4 5 6 3 3 3 4 4 4 4 4 4 6 6 7
5 6 5 6 6 6 4 3 4 3 3 2 1 0 1 2 3 4 5 6 6 5 6 8 9 6 4 4 6 6 5 3 4 4 4 3 3 3 4 4 4 4 4
4 4 5 5 6 5 5 5 4 4 4 3 2 2 2 0 1 1 2 4 6 5 6 6 6 6 6 4 4 3 3 3 4 3 3 3 3 4 4 4 4 5 6
3 4 3 3 4 4 3 4 8 7 6 6 6 5 3 3 4 2 1 3 6 7 4 4 3 3 4 4 5 5 4 4 4 4 4 4 4 5 5 4 4 6 7
2 2 1 1 2 2 1 1 2 3 5 7 8 7 6 5 2 4 7 8 5 3 2 2 2 2 2 2 2 3 4 4 3 3 4 4 4 5 5 5 6 6 7
1 2 0 0 1 1 1 0 1 1 2 3 5 7 7 8 8 10 10 7 3 1 1 1 1 2 2 3 3 4 3 3 4 4 4 5 5 5 5 6 6 8 7
1 1 1 1 1 0 0 0 1 3 2 2 3 4 5 6 6 4 2 2 3 2 1 1 1 2 2 3 3 4 4 4 4 4 5 5 5 5 6 6 6 7 8
2 3 1 1 1 1 1 2 3 3 3 3 3 3 3 2 2 2 0 1 0 1 1 1 1 2 3 3 4 4 5 4 5 5 5 5 5 5 6 7 6 6 6
3 4 3 1 1 1 1 3 3 3 3 3 4 4 4 2 2 2 1 1 1 1 1 1 1 2 3 4 4 5 6 5 5 5 5 5 5 5 5 5 5 5 4
4 4 3 3 2 2 1 3 3 3 3 4 3 3 1 1 2 2 1 1 1 1 1 1 1 1 2 3 4 4 4 5 5 4 5 5 5 5 5 4 4 4 4
5 4 4 3 3 3 2 3 3 3 3 4 3 3 2 2 2 2 2 2 1 1 1 2 2 1 1 2 3 3 4 4 4 4 4 5 5 5 5 5 6 5 5
5 5 4 4 4 4 3 3 4 4 3 3 3 4 3 3 3 3 3 2 2 2 2 2 3 4 5 3 2 3 3 4 5 4 6 6 5 4 4 4 5 5 4
6 5 5 4 5 4 4 4 4 4 4 3 3 3 3 3 3 3 3 3 4 4 5 5 5 5 7 8 7 7 8 7 5 4 3 4 4 3 3 3 3 4 4
6 6 5 4 4 4 4 4 4 4 4 4 3 3 3 3 3 4 4 5 5 5 6 5 7 8 9 7 8 10 10 9 6 4 2 2 2 2 2 2 3 4 4
Wind_Direction
187 187 195 198 200 202 203 192 190 185 177 183 189 196 194 187 178 165 157 154 164 186 208 221 223 223 216 214 218 226 233 240 244 222 178 182 184 195 172 199 182 201 146
183 183 197 194 197 211 201 192 188 187 190 193 191 202 194 178 173 167 161 154 154 183 249 254 239 220 223 221 219 224 227 232 235 225 183 196 199 197 185 188 193 206 182
179 183 193 198 202 212 209 193 195 195 195 198 193 202 204 193 183 179 174 168 174 205 238 259 261 240 225 226 227 232 228 232 232 225 188 178 200 200 194 194 196 194 201
182 188 199 208 206 211 209 204 205 205 201 201 195 200 207 204 198 192 191 190 193 203 215 230 250 257 250 246 236 237 227 227 227 220 191 178 184 195 196 197 196 193 202
192 200 208 216 213 214 208 209 211 210 212 211 206 201 201 204 202 199 199 203 204 208 213 218 228 246 273 281 273 252 225 218 222 222 211 188 184 182 201 200 201 190 198
207 218 217 222 219 220 218 215 214 210 215 215 218 214 206 204 180 203 228 224 224 221 221 223 223 226 241 243 251 261 251 229 224 226 223 212 204 201 194 192 194 189 198
222 231 224 221 221 223 221 217 214 213 212 213 219 219 218 202 172 200 223 242 238 238 235 231 222 226 230 236 228 228 237 242 247 248 241 238 226 200 189 192 198 199 208
229 239 231 224 220 221 219 216 213 210 205 207 211 216 223 205 185 204 209 235 239 237 235 236 227 226 221 228 232 232 235 227 226 237 251 259 251 208 196 202 202 204 196
54 327 281 249 230 216 216 218 211 204 202 201 202 205 210 203 187 201 211 234 238 235 229 228 228 231 205 212 243 247 247 245 231 246 275 293 256 202 201 206 187 184 192
41 29 23 21 359 287 236 221 207 206 209 205 205 205 204 202 178 195 218 236 237 229 219 213 201 245 153 194 236 252 255 239 209 205 214 211 215 202 200 208 190 198 202
31 33 33 33 34 30 30 131 181 194 198 200 200 203 204 198 178 194 216 244 239 222 201 198 179 156 163 191 252 270 343 212 199 197 195 199 199 195 199 224 219 221 220
39 37 36 35 40 50 65 88 119 139 147 159 177 185 197 191 196 190 210 236 268 229 205 186 152 156 170 187 214 119 124 153 176 181 187 189 189 189 196 208 235 241 251
43 39 34 42 51 56 81 103 109 118 131 148 173 187 193 187 175 185 203 210 235 249 125 89 122 153 168 184 180 167 181 185 188 200 206 203 198 193 183 194 211 222 233
38 32 28 33 48 61 72 93 99 94 101 111 116 179 206 199 192 192 190 182 183 181 139 124 129 142 152 126 160 185 199 190 204 214 213 202 184 185 185 181 190 192 204
34 38 39 47 49 54 70 52 35 57 32 11 17 359 347 304 43 306 246 200 190 175 155 160 163 161 158 165 181 185 185 183 204 213 208 203 202 206 198 185 186 188 202
22 36 36 46 64 66 73 86 55 50 53 48 38 15 20 357 324 269 208 112 114 141 170 167 173 185 182 179 186 195 202 207 208 214 219 215 211 214 213 199 200 207 215
29 42 42 27 59 93 120 148 135 110 78 60 52 42 31 16 64 124 120 116 123 187 208 165 167 179 196 209 220 233 225 215 217 230 246 248 239 228 221 215 213 221 229
94 86 16 40 314 288 260 282 37 85 119 95 66 48 46 59 85 108 123 130 132 186 151 151 165 181 198 209 213 230 248 249 247 249 250 256 256 249 240 232 226 228 232
173 139 92 47 346 316 237 43 75 89 101 111 114 84 66 80 90 101 204 207 155 160 181 242 268 269 263 254 242 237 239 239 243 250 258 261 260 254 249 246 244 243 242
148 84 6 344 114 119 125 100 94 105 111 107 100 100 133 160 144 140 136 16 40 138 200 245 271 280 276 267 263 262 260 251 245 246 254 259 260 258 258 256 254 250 244
164 149 178 219 92 94 107 115 117 117 107 92 80 63 11 57 76 63 45 17 353 339 316 315 327 307 292 282 272 265 265 267 262 262 264 262 261 258 257 259 260 253 245
175 173 180 171 142 131 125 132 133 128 121 113 105 107 5 34 62 64 61 47 23 301 315 321 285 269 279 285 285 281 273 270 267 262 261 258 256 255 252 247 246 245 232
175 171 172 165 152 147 171 133 128 121 121 121 124 127 116 87 73 64 64 51 28 22 10 327 317 333 326 291 278 272 273 274 275 271 264 256 245 241 241 244 245 242 236
168 168 172 167 163 163 154 132 122 123 133 132 123 109 99 88 71 55 44 28 16 21 18 359 357 0 1 350 323 302 292 290 284 275 270 266 258 247 238 240 244 247 247
166 160 161 156 151 154 151 144 135 129 125 111 97 93 90 83 72 56 35 28 23 35 45 42 29 23 22 24 18 5 350 334 307 290 278 276 272 256 238 232 231 230 227
166 157 152 150 150 154 156 153 140 131 123 114 107 99 91 77 66 57 44 42 44 47 47 44 32 27 17 11 7 359 354 352 344 324 295 292 290 280 255 240 231 226 223